Lynchburg, VA

2:30 PM EST on February 25, 2017 (GMT -0500)
Lynchburg Regional-Glenn

Weather History for KLYH - October, 2011

Change the Weather History Date:

Tuesday, October 11, 2011

  Actual Average Record
Temperature  
Mean Temperature 64 °F 58 °F  
Max Temperature 68 °F 70 °F 89 °F (1919)
Min Temperature 59 °F 46 °F 27 °F (1964)
Degree Days  
Heating Degree Days 1 8  
Month to date heating degree days 82 72  
Since 1 July heating degree days 112 133  
Cooling Degree Days 0 1  
Month to date cooling degree days 0 11  
Year to date cooling degree days 1344 1027  
Growing Degree Days 14 (Base 50)    
Moisture  
Dew Point 57 °F    
Average Humidity 80    
Maximum Humidity 97    
Minimum Humidity 63    
Precipitation  
Precipitation 0.16 in 0.10 in 1.76 in (1990)
Month to date precipitation 0.22 1.09  
Year to date precipitation 28.37 32.90  
Snow  
Snow 0.00 in - - ()
Month to date snowfall 0.0  
Since 1 July snowfall 0.0  
Since 1 September snowfall 0.0  
Snow Depth 0.00 in    
Sea Level Pressure  
Sea Level Pressure 30.10 in    
Wind  
Wind Speed 6 mph (NNE)    
Max Wind Speed 14 mph    
Max Gust Speed 18 mph    
Visibility 9 miles    
Events Rain    
T = Trace of Precipitation, MM = Missing Value Source: NWS Daily Summary

Daily Weather History Graph

Daily Weather History Graph

Search for Another Location

Airport or City:

Trip Planner

Search our weather history database for the weather conditions in past years. The results will help you decide how hot, cold, wet, or windy it might be!

Date:

Astronomy

Oct. 11, 2011 Rise Set
Actual Time 7:20 AM EDT 6:45 PM EDT
Civil Twilight 6:54 AM EDT 7:11 PM EDT
Nautical Twilight 6:24 AM EDT 7:42 PM EDT
Astronomical Twilight 5:54 AM EDT 8:12 PM EDT
Moon 6:17 PM EDT (10/11) 6:56 AM EDT (10/11)
Length of Visible Light 12h 17m
Length of Day
11h 24m
Full, 100% of the Moon is Illuminated
Oct 11
Full
Oct 11
Full
Oct 19
Last Quarter
Oct 26
New
Nov 2
First Quarter

Hourly Weather History & Observations

Time (EDT) Temp. Dew Point Humidity Pressure Visibility Wind Dir Wind Speed Gust Speed Precip Events Conditions
12:54 AM 63.0 °F 55.0 °F 75% 30.15 in 10.0 mi North 6.9 mph - N/A   Clear
1:54 AM 62.6 °F 55.4 °F 77% 30.16 in 10.0 mi North 8.1 mph - N/A   Overcast
2:54 AM 64.0 °F 55.0 °F 73% 30.12 in 10.0 mi North 6.9 mph - N/A   Overcast
3:54 AM 66.0 °F 54.0 °F 65% 30.10 in 10.0 mi NE 12.7 mph - N/A   Overcast
4:54 AM 64.4 °F 53.6 °F 68% 30.13 in 10.0 mi NE 9.2 mph - N/A   Overcast
5:54 AM 62.6 °F 55.4 °F 77% 30.14 in 10.0 mi Calm Calm - N/A   Partly Cloudy
6:54 AM 59.0 °F 55.9 °F 90% 30.14 in 10.0 mi Calm Calm - 0.00 in Rain Light Rain
7:54 AM 60.1 °F 57.0 °F 90% 30.16 in 10.0 mi Calm Calm - 0.00 in Rain Light Rain
8:54 AM 61.0 °F 57.0 °F 87% 30.15 in 10.0 mi North 6.9 mph - 0.01 in   Mostly Cloudy
9:54 AM 62.1 °F 57.0 °F 84% 30.16 in 10.0 mi NNE 6.9 mph - N/A   Mostly Cloudy
10:54 AM 64.9 °F 57.9 °F 78% 30.14 in 10.0 mi NNE 8.1 mph - N/A   Mostly Cloudy
11:54 AM 68.0 °F 57.9 °F 70% 30.12 in 10.0 mi NNE 5.8 mph - N/A   Mostly Cloudy
12:54 PM 66.9 °F 57.9 °F 73% 30.13 in 10.0 mi ENE 5.8 mph - N/A   Overcast
1:54 PM 68.0 °F 59.0 °F 73% 30.10 in 10.0 mi Calm Calm - 0.00 in   Overcast
2:54 PM 64.9 °F 55.9 °F 73% 30.11 in 10.0 mi SE 5.8 mph - 0.00 in Rain Light Rain
3:54 PM 64.4 °F 57.2 °F 77% 30.10 in 10.0 mi Calm Calm - N/A   Overcast
4:54 PM 64.0 °F 55.9 °F 75% 30.06 in 10.0 mi North 5.8 mph - 0.00 in   Overcast
5:54 PM 63.0 °F 57.0 °F 81% 30.04 in 10.0 mi NNE 8.1 mph - 0.00 in Rain Light Rain
6:54 PM 63.0 °F 55.9 °F 78% 30.03 in 10.0 mi NNE 4.6 mph - 0.00 in Rain Light Rain
7:54 PM 61.0 °F 55.9 °F 83% 30.04 in 10.0 mi East 4.6 mph - 0.00 in Rain Light Rain
8:54 PM 61.0 °F 59.0 °F 93% 30.02 in 10.0 mi North 5.8 mph - 0.01 in Rain Light Rain
9:54 PM 61.0 °F 59.0 °F 93% 30.03 in 8.0 mi NE 5.8 mph - 0.02 in Rain Light Rain
10:38 PM 60.8 °F 59.0 °F 94% 30.06 in 6.0 mi ESE 3.5 mph - 0.00 in Rain Light Rain
10:54 PM 61.0 °F 59.0 °F 93% 30.02 in 5.0 mi North 9.2 mph - 0.01 in Rain Light Rain
11:54 PM 61.0 °F 59.0 °F 93% 30.03 in 5.0 mi NNE 9.2 mph - 0.03 in Rain Light Rain